Вернуться в каталог

CZ-6A DEB

АктивенPO
NORAD 54988·DEBRIS·🇨🇳 China

Запущен Nov 11, 2022 с Taiyuan Satellite Launch Center

Loading…

Ближайшие Пролёты (ближайшие 24 часа)

TLE

СвежийSource: Space-Track

Эпоха: Sep 14, 2026, 19:43 UTC

1 54988U 22151UD  26257.82212832  .00006992  00000-0  14951-2 0  9993
2 54988  99.1312  30.4992 0069047 111.4531 249.4047 14.57650770201252

Отслеживайте CZ-6A DEB в реальном времени с AllMySat

Download on the App Store